Theta_e
347 348 349 353 351 353 356 355 356 356 358 362 360 362 365 362 364 362 366 367 368 367 364 365 362 360 358 358 360 364 362 362 360 365 359 364 362 365 363 364 363 363 363 362 362 363 362 362 361 360 361 357 357 355 354 355 357 356 355 355 353 351 350 351 351 351 349 346 347 347 348 351 352 352 350 350 351 353 352 352 353 353 351 349 351
344 345 344 348 347 353 353 353 357 358 361 362 362 364 367 367 365 363 365 368 368 367 365 367 365 362 358 359 362 360 360 361 355 359 358 355 362 365 363 365 366 365 364 363 363 362 361 359 360 361 359 357 359 355 355 355 354 354 353 352 354 350 347 348 348 348 344 340 339 340 344 347 350 351 350 349 348 350 350 350 351 351 351 352 354
339 343 344 345 346 349 352 352 354 356 358 360 363 363 363 363 365 368 364 367 366 365 365 365 365 366 363 363 360 358 360 359 353 353 355 351 358 360 363 365 365 361 360 362 360 360 362 362 360 360 358 358 359 358 353 349 351 350 349 345 343 348 348 349 349 350 341 343 343 337 334 335 341 348 350 348 347 347 348 348 350 348 348 352 356
338 342 343 344 344 345 349 351 354 355 359 361 362 364 366 366 367 365 365 365 365 364 365 364 365 362 363 365 354 356 354 355 355 358 357 354 356 350 357 354 356 357 355 354 356 356 356 355 354 356 355 356 357 354 355 355 349 347 346 348 346 342 344 343 348 351 346 341 332 334 335 335 329 333 340 349 348 345 346 347 348 349 350 351 356
340 339 341 341 345 345 349 353 352 353 358 359 361 363 362 362 365 365 365 365 365 365 365 365 364 363 361 359 357 360 357 358 353 355 349 348 341 349 346 354 355 356 354 354 353 355 356 356 355 354 355 355 355 356 356 351 352 347 348 349 348 344 340 343 346 350 347 346 340 333 332 331 330 333 337 337 342 341 343 344 347 349 348 350 350
342 341 340 340 341 347 351 353 352 353 357 362 365 366 362 364 365 366 366 366 365 364 361 366 358 360 363 358 354 358 353 343 343 345 345 344 338 342 347 351 353 352 355 355 352 352 354 353 354 353 353 354 353 355 355 354 349 349 350 348 346 348 343 339 338 346 347 341 337 337 338 333 333 337 334 329 344 343 344 347 348 350 353 350 350
340 341 340 338 342 345 350 353 353 352 356 360 360 363 364 365 365 364 364 362 358 356 355 365 353 363 352 348 350 351 345 359 356 350 349 350 350 349 352 352 354 350 350 350 351 352 354 355 354 353 352 353 355 350 349 350 352 351 351 350 350 347 342 337 339 341 345 345 342 341 343 343 342 336 331 334 329 338 346 343 344 347 351 351 351
340 339 340 341 343 344 348 353 353 350 356 359 358 361 364 364 362 359 358 356 356 355 357 358 360 356 351 347 356 349 347 347 352 350 354 361 354 348 351 354 355 354 353 354 351 350 354 354 354 354 354 353 354 351 350 351 353 353 350 350 350 348 344 341 339 340 339 340 343 341 341 341 341 340 337 332 331 328 332 339 341 342 346 349 350
338 337 337 337 344 346 351 353 353 355 356 356 360 361 362 360 357 356 355 355 355 357 357 355 360 359 357 357 353 352 347 347 349 349 350 350 348 350 351 351 353 356 354 352 352 354 354 353 352 352 352 351 355 352 352 352 351 349 350 350 347 346 345 345 343 341 341 339 339 339 339 336 337 337 337 336 330 328 329 331 333 339 341 341 342
338 338 339 339 343 344 350 353 354 353 356 361 361 360 356 355 354 354 354 355 356 356 358 354 352 352 348 349 346 355 356 353 349 348 349 353 347 349 350 350 353 352 353 353 354 352 352 353 352 349 349 349 353 350 349 349 348 349 350 349 348 348 348 347 345 345 343 343 342 340 333 334 334 335 336 335 334 333 328 330 333 333 333 339 344
338 338 340 343 345 348 350 352 355 356 357 359 358 356 350 352 353 354 355 358 357 355 354 353 353 350 354 347 341 342 343 346 347 344 349 347 347 347 347 349 349 352 349 350 351 351 353 351 345 347 349 350 352 352 351 349 346 347 350 349 350 347 348 348 346 346 345 343 341 341 337 337 335 330 332 333 331 329 330 330 332 333 334 333 339
338 338 339 343 348 348 350 352 354 357 358 357 356 351 350 352 353 353 354 356 355 354 354 353 353 354 349 346 347 349 343 343 344 343 345 345 345 347 345 346 348 350 352 350 349 343 350 351 350 349 350 350 350 351 350 350 347 349 349 347 345 345 346 345 343 342 343 342 342 342 340 337 335 334 332 335 331 331 330 327 329 333 335 337 340
338 341 342 343 345 346 349 352 355 357 357 357 352 345 348 353 353 353 352 355 354 354 353 354 353 353 353 351 348 355 351 347 350 344 346 346 346 344 344 344 349 346 349 347 345 347 350 348 348 350 350 350 350 351 350 350 351 349 348 346 347 344 346 343 341 342 340 340 338 341 340 337 338 340 338 334 333 334 332 328 331 335 329 331 336
338 339 340 344 347 346 350 352 355 356 357 354 350 348 350 351 353 353 351 354 354 355 354 354 354 354 354 350 355 356 350 352 350 345 349 344 345 344 344 344 346 344 344 347 346 345 346 346 347 347 349 349 351 351 350 348 349 349 348 348 345 347 348 347 344 343 342 342 339 337 339 338 341 340 340 338 335 334 331 329 329 332 334 331 335
340 341 340 345 347 348 350 353 355 356 355 350 348 351 352 352 353 353 353 353 353 354 354 353 354 353 353 350 352 351 355 354 356 352 348 346 344 344 345 345 345 347 350 348 349 348 347 348 347 347 348 348 349 349 349 351 349 346 347 345 346 347 345 346 344 343 341 341 338 337 340 341 339 340 340 339 339 336 334 333 330 326 328 332 331
338 340 341 346 348 350 351 354 356 355 354 349 349 352 351 353 353 353 354 352 352 353 354 354 353 354 353 352 349 348 350 354 351 349 348 349 348 346 347 347 350 349 348 349 346 347 348 346 347 346 348 346 348 349 348 346 347 345 345 344 343 344 343 342 342 340 340 342 341 343 341 336 339 341 342 341 341 340 338 337 334 331 325 323 327
340 341 342 347 348 351 352 356 355 352 351 347 350 352 352 354 352 353 354 352 352 354 354 352 353 352 352 350 349 346 345 344 345 344 341 345 346 347 347 347 347 348 347 349 348 348 348 346 346 345 346 347 347 348 348 348 348 345 343 344 343 343 345 344 344 343 343 342 342 342 341 340 341 343 344 339 335 335 335 337 338 334 331 325 323
343 345 346 348 348 348 352 357 354 352 350 349 352 353 354 354 353 352 352 352 353 353 353 352 351 351 351 350 349 348 346 344 343 344 346 346 345 346 347 347 347 346 344 345 347 346 347 346 346 346 346 345 346 345 346 347 346 347 345 346 345 345 344 345 345 343 342 342 340 338 338 338 340 341 342 338 336 337 336 335 335 334 334 326 326
342 342 343 345 347 346 350 353 353 353 352 350 352 352 353 353 353 350 351 353 353 351 352 352 353 350 350 350 349 350 349 348 345 347 350 343 342 343 344 348 345 348 349 350 348 345 345 346 346 344 344 344 345 344 347 346 346 345 344 344 344 344 344 343 343 341 342 341 338 335 338 339 339 338 340 342 340 339 337 338 337 334 334 331 327
336 339 338 340 344 344 346 349 351 352 350 348 347 349 349 350 352 351 351 355 354 353 352 351 351 352 350 352 350 349 349 347 347 347 346 344 344 341 342 340 347 345 344 344 344 344 343 342 339 340 341 341 343 343 343 344 345 344 344 344 344 344 343 342 341 342 341 341 338 335 336 337 338 337 336 335 334 335 335 338 335 333 333 333 331
339 340 339 340 345 346 346 347 349 350 349 346 347 347 348 349 348 346 350 350 349 350 350 351 352 352 351 349 348 348 347 346 346 346 346 346 346 346 343 342 344 345 345 343 343 345 345 342 341 343 342 344 344 344 345 345 344 344 344 343 342 342 340 340 341 340 340 339 338 336 335 336 338 334 333 331 330 329 330 331 332 333 334 335 332
342 343 339 337 340 346 346 345 346 344 343 346 347 347 347 346 345 344 345 346 346 348 350 352 352 352 349 349 349 347 347 348 345 347 346 345 344 344 346 347 342 344 346 342 345 342 343 344 341 342 344 343 344 345 342 344 343 342 341 340 340 340 339 338 339 338 338 337 337 335 334 335 337 333 331 329 328 328 328 327 327 327 328 329 331
339 344 343 344 345 347 346 346 344 343 345 344 343 342 344 343 343 343 343 343 342 344 349 353 351 350 350 349 350 348 347 345 344 343 339 339 338 342 343 342 341 339 348 346 344 343 344 344 343 343 344 343 344 344 343 344 342 341 339 339 340 340 338 338 336 337 336 337 335 334 332 334 334 331 331 329 329 328 327 326 325 326 326 327 329
345 344 345 344 343 347 346 343 341 342 343 341 339 340 341 341 340 339 339 340 340 343 345 349 350 349 349 349 347 347 344 340 338 341 337 337 336 337 341 344 338 342 341 345 343 342 342 343 342 344 343 343 344 344 345 344 343 341 339 339 340 339 338 338 337 336 335 334 333 332 333 333 333 331 330 329 329 327 326 325 324 325 326 326 326
348 349 347 345 343 344 344 343 341 343 343 344 342 338 339 340 340 338 337 339 339 343 344 347 347 345 346 348 344 342 340 341 338 334 334 332 332 332 339 335 337 335 335 338 346 348 346 344 341 342 342 342 343 344 343 343 342 340 340 338 336 337 338 337 336 337 335 334 333 332 333 334 333 330 329 328 328 326 325 324 324 324 324 324 324
353 353 349 346 346 345 345 344 342 346 347 346 347 344 341 340 341 340 338 339 338 337 346 345 345 345 347 344 344 342 340 340 339 338 336 337 336 341 336 332 338 334 336 334 338 340 342 343 343 344 344 342 343 343 344 343 341 339 332 329 329 333 333 334 335 336 334 334 332 332 334 334 332 330 328 329 329 327 326 324 323 323 323 323 322
351 353 348 349 348 346 345 345 346 346 349 348 346 342 339 344 340 337 342 341 346 341 345 344 341 341 344 342 342 343 343 337 343 343 343 338 335 333 333 334 335 335 333 331 332 337 341 340 342 342 341 340 340 341 343 344 342 336 332 331 331 334 335 335 335 334 333 332 332 332 333 333 333 332 330 328 328 327 326 325 324 323 323 323 322
354 355 350 347 347 348 346 345 348 349 350 348 344 341 344 342 337 339 335 333 336 345 346 344 342 345 345 342 341 344 343 345 344 343 343 343 341 342 342 342 339 336 333 333 331 332 334 338 337 337 338 339 339 339 340 344 341 338 337 336 335 335 335 333 334 334 333 331 332 332 330 331 333 335 332 329 329 327 327 325 325 324 323 322 321
341 347 353 349 347 348 348 346 348 350 349 346 342 343 347 342 338 341 334 338 345 342 343 343 345 345 344 345 345 344 345 345 344 344 343 343 342 343 343 342 342 339 336 333 334 333 337 337 337 337 338 339 338 339 342 338 339 341 339 338 338 335 333 332 332 332 332 333 332 333 331 330 338 332 323 320 321 321 325 324 325 325 323 322 320
346 349 351 353 351 350 348 347 348 349 347 343 342 344 342 339 337 335 340 342 344 342 345 344 342 343 345 344 345 345 345 345 343 342 343 343 340 342 339 341 341 338 338 338 340 340 335 334 336 337 338 337 338 341 338 332 333 339 340 339 336 335 334 334 333 332 330 330 332 333 331 332 327 324 323 320 316 315 315 321 325 325 323 321 320
345 349 350 351 351 350 348 348 349 348 346 344 342 344 341 335 337 338 342 338 347 345 346 345 344 344 345 345 344 344 344 343 343 343 343 342 342 342 342 342 342 341 341 340 338 338 336 336 335 334 335 336 338 339 332 326 327 330 337 339 337 335 334 333 332 331 330 330 333 335 333 331 330 330 333 327 321 319 319 316 315 315 316 320 318
343 346 348 350 348 349 348 348 348 349 347 346 344 343 342 340 339 337 336 339 343 345 345 346 345 345 345 344 343 344 343 342 343 343 343 343 342 342 342 341 340 339 341 341 337 338 339 337 335 334 334 336 336 335 327 325 327 328 331 338 336 334 333 332 332 331 330 332 333 332 333 334 333 331 333 332 330 326 321 319 316 315 315 315 315
345 344 345 345 343 349 350 349 350 349 348 347 346 343 338 338 338 339 338 338 343 343 347 347 345 344 344 343 344 343 343 342 342 342 343 343 343 342 341 339 337 338 339 340 339 337 337 339 337 336 335 334 335 331 324 324 325 325 327 331 336 336 333 333 332 332 332 333 333 332 331 332 332 332 334 334 333 333 324 320 318 317 318 318 319
337 345 344 348 349 350 352 352 353 352 349 346 348 342 339 339 337 338 338 342 344 345 347 346 346 345 344 344 343 342 342 342 343 343 343 343 342 341 340 338 337 339 338 337 338 339 339 339 338 337 337 336 337 330 323 322 322 323 325 328 335 335 334 333 333 332 331 332 332 332 331 330 331 332 334 334 333 332 329 328 326 324 324 324 319
338 346 346 354 355 355 356 356 353 350 349 345 344 340 338 338 336 336 341 347 345 345 347 347 345 345 344 343 343 342 342 342 343 343 343 342 341 341 340 339 336 335 336 339 339 339 339 336 335 333 333 336 338 321 321 320 319 319 321 326 335 335 334 334 334 334 334 333 331 331 330 330 331 330 333 332 332 329 326 325 324 323 323 324 325
340 350 353 356 355 356 353 355 353 351 348 344 340 336 335 336 336 338 342 347 346 346 346 346 345 344 343 343 342 342 342 342 342 342 341 341 341 342 340 340 339 336 337 337 337 338 336 335 335 335 336 335 332 323 321 319 317 317 321 332 335 335 335 334 334 336 334 331 332 331 330 329 329 331 327 321 321 323 324 323 322 322 322 323 324
348 347 352 360 358 358 354 358 354 351 348 346 340 335 338 338 337 339 344 343 344 346 345 346 344 344 342 342 341 340 341 341 341 340 340 339 340 341 341 341 338 336 335 335 335 334 336 335 334 336 336 336 334 332 320 316 314 316 321 334 335 335 335 334 335 336 334 333 334 334 332 331 332 333 326 321 316 314 323 321 320 320 321 322 322
345 355 352 359 358 357 360 354 352 350 348 347 341 341 345 345 341 341 339 339 341 342 345 345 344 343 343 343 342 341 341 340 341 340 340 340 340 342 341 341 337 334 332 331 332 334 337 337 334 334 330 331 330 325 312 311 311 314 323 334 335 335 333 334 334 334 334 333 333 333 333 332 333 334 324 315 313 316 320 319 320 320 320 320 322
347 348 350 352 356 357 353 354 352 349 348 349 346 345 344 345 343 338 338 339 341 344 344 344 344 344 344 343 342 342 341 340 340 339 338 338 339 340 340 339 337 335 334 338 337 336 333 333 329 328 335 330 329 325 311 311 312 314 320 332 335 334 332 331 331 330 332 332 331 332 332 329 328 326 310 310 310 311 317 318 319 320 319 320 322
351 350 353 356 357 358 352 351 349 350 350 350 348 346 343 344 341 339 338 341 343 345 348 348 346 345 344 343 342 342 342 340 340 341 340 340 341 337 336 335 336 334 333 334 333 331 331 328 328 327 330 334 334 337 330 310 311 312 315 327 332 331 329 328 329 329 328 327 328 330 329 320 315 312 308 306 305 306 312 316 319 319 320 320 323
346 348 350 354 354 354 350 349 349 352 350 348 346 346 346 347 348 345 344 345 347 348 350 349 348 344 342 342 342 342 342 341 341 341 341 340 338 336 336 336 333 333 338 335 332 331 330 334 330 330 330 331 333 333 332 314 311 310 314 316 326 327 327 327 327 325 323 323 325 327 328 323 313 310 307 305 304 304 305 313 319 322 323 322 313
349 352 351 351 349 352 351 348 354 353 350 350 351 352 351 353 351 349 351 351 354 356 352 350 349 345 343 341 341 342 343 342 342 342 341 340 341 341 339 338 337 337 335 334 335 336 336 333 334 330 332 334 334 331 334 325 313 308 307 308 320 324 326 323 322 321 323 324 327 327 327 325 315 309 306 304 302 303 305 315 323 311 309 310 317
350 350 352 349 349 348 345 346 344 346 350 351 351 352 353 351 352 351 353 357 356 355 355 352 349 346 344 343 344 344 343 342 342 342 340 339 341 341 341 342 343 340 337 333 333 335 334 329 328 329 330 336 337 335 326 330 315 309 305 305 308 315 318 323 322 322 323 324 325 326 328 321 311 305 303 303 303 303 308 319 307 307 310 312 316
348 350 350 347 349 347 344 346 341 344 347 348 354 353 352 351 350 351 353 354 357 355 355 352 350 348 346 345 344 344 345 344 343 342 340 341 341 340 341 342 337 329 326 328 332 332 330 326 326 326 326 333 338 339 327 326 321 308 304 302 304 304 307 319 323 322 323 324 326 328 325 310 305 301 303 304 303 307 318 306 306 310 312 316 326
344 344 343 344 343 343 340 344 348 344 344 349 353 353 351 348 349 348 350 351 352 352 351 350 348 347 348 346 345 345 342 341 340 339 339 339 338 339 339 336 334 332 329 330 329 331 329 328 326 326 330 335 333 337 334 330 324 321 313 311 311 311 310 308 316 322 325 327 320 309 305 305 306 305 305 305 311 317 312 308 309 312 316 324 324
342 342 344 341 338 338 342 346 349 351 352 352 351 348 343 346 345 345 349 350 349 349 349 347 347 347 346 346 340 340 337 337 339 338 337 340 341 338 333 332 331 332 332 328 328 330 329 328 328 328 327 331 330 331 333 333 328 325 320 315 312 313 313 313 314 321 315 312 310 309 310 311 313 316 322 327 327 326 315 314 316 318 324 322 321
337 340 343 339 337 336 341 343 343 345 345 343 345 345 349 348 347 345 346 348 346 347 345 346 347 346 345 339 339 332 334 336 334 335 338 338 331 336 331 327 327 328 328 327 329 327 327 327 327 327 328 332 327 328 330 323 321 320 319 319 320 321 320 319 322 323 319 317 317 316 317 313 313 314 319 320 320 321 325 325 325 324 322 321 319
344 342 349 341 339 337 338 338 342 344 345 339 336 336 337 340 330 329 331 336 343 341 341 344 344 345 344 341 339 338 333 331 334 333 331 330 332 331 334 331 330 329 327 325 326 327 326 327 327 325 324 328 326 322 316 315 315 313 314 315 317 319 320 319 318 317 314 314 315 313 318 329 332 328 323 326 327 326 328 323 323 322 321 320 320
338 339 346 345 342 340 342 341 340 340 340 339 334 331 330 332 331 333 343 340 336 334 339 339 340 343 342 340 335 331 336 332 330 329 330 321 315 327 332 332 328 322 327 328 326 329 329 327 326 326 325 325 323 315 311 303 308 301 305 308 312 315 316 316 314 306 309 311 316 321 326 321 321 320 320 320 321 322 320 320 320 319 318 318 316
340 337 338 337 339 341 341 340 340 340 338 337 335 334 333 328 330 332 338 341 340 337 335 334 336 336 334 332 333 331 337 334 331 331 329 315 305 298 303 318 318 305 299 295 303 320 317 322 322 316 318 318 315 310 300 296 295 294 294 294 296 295 295 300 301 300 302 307 316 323 320 318 318 318 316 317 315 316 315 315 316 314 316 316 315
338 336 336 336 337 339 340 340 339 339 336 335 336 332 336 332 335 336 333 337 336 337 334 332 332 330 330 341 338 339 336 333 332 333 331 325 318 311 297 296 301 301 297 294 293 294 298 303 318 313 307 304 303 298 295 295 294 294 293 293 292 293 293 294 294 302 312 319 320 318 317 316 316 315 315 314 315 315 314 313 313 314 314 314 314
Wind_Speed
12 13 14 11 12 9 9 8 7 8 8 8 8 8 6 6 5 5 4 3 5 3 2 1 1 2 2 2 1 1 1 3 4 2 3 2 3 3 2 2 2 3 2 2 3 4 4 5 4 5 3 3 4 5 7 9 6 5 6 5 8 6 4 5 6 6 6 6 5 8 9 8 10 10 11 8 6 5 5 6 6 7 9 8 9
14 12 13 13 11 12 10 8 9 9 7 8 8 8 6 4 4 5 2 4 3 3 2 0 0 3 3 3 2 1 1 2 5 5 5 5 7 6 4 5 3 4 3 3 3 4 4 4 4 4 4 4 4 5 7 7 8 8 5 6 4 5 5 6 6 4 3 5 6 6 6 5 7 9 10 9 9 8 7 7 8 9 9 9 9
14 14 14 12 13 13 10 9 9 10 10 9 8 9 7 6 5 6 3 3 2 4 3 3 1 3 4 3 3 3 5 3 1 3 2 3 3 2 4 4 3 1 2 2 3 4 4 4 4 4 5 4 4 4 2 5 6 6 6 6 6 5 5 5 5 4 6 4 4 5 7 6 5 5 7 9 9 9 8 10 10 10 12 7 6
16 15 16 14 13 12 10 9 9 9 8 8 8 7 6 6 6 5 5 6 7 7 5 5 6 2 1 1 1 1 2 2 2 3 3 3 1 2 3 6 4 3 4 4 3 3 3 4 4 5 5 5 5 6 5 4 1 3 4 6 6 7 5 5 4 4 6 4 6 5 4 4 9 5 5 5 9 11 11 11 10 8 7 5 3
14 15 15 14 12 12 11 9 10 9 9 8 8 7 6 7 7 7 6 5 4 5 4 4 4 3 2 1 2 1 2 1 3 3 3 4 4 3 6 4 5 3 3 3 3 3 3 3 4 5 5 5 5 4 2 2 2 3 5 5 5 5 6 5 4 4 4 2 5 3 5 4 6 7 7 7 6 6 9 11 9 8 8 6 6
13 14 14 14 14 12 11 11 10 9 9 8 8 9 7 6 7 6 5 5 5 5 4 3 3 3 2 1 2 1 2 2 2 2 3 4 6 7 5 4 4 4 3 3 5 5 4 4 4 5 5 5 5 4 2 2 5 5 5 5 5 3 3 3 6 5 4 5 7 8 6 7 7 4 5 6 4 7 7 7 5 6 5 6 5
14 14 14 15 12 12 13 11 10 10 10 9 9 8 8 7 7 6 5 5 5 4 4 2 4 1 2 2 2 1 1 0 2 3 2 2 2 3 2 4 3 4 4 4 4 4 3 3 4 4 5 5 5 5 5 4 3 2 1 2 1 1 1 3 5 6 4 5 5 9 9 8 7 7 7 7 10 5 3 5 6 7 7 7 7
14 14 14 13 12 12 12 11 9 9 10 9 8 8 9 8 7 6 5 5 4 4 4 3 3 2 2 1 2 2 2 2 1 3 2 0 2 3 3 2 2 2 2 3 4 4 3 3 3 3 4 3 1 3 4 4 3 2 2 2 1 1 2 4 6 6 6 4 3 6 7 8 9 10 10 11 10 11 11 8 9 9 8 7 7
16 14 14 12 13 12 12 11 10 9 10 10 9 8 8 7 7 6 6 5 5 5 4 3 3 3 2 3 1 1 2 2 2 2 3 2 3 2 2 2 2 2 3 3 3 3 3 3 3 3 3 4 2 3 3 4 3 5 3 1 1 2 3 4 4 5 3 4 4 4 3 5 5 6 8 6 5 10 11 10 9 8 10 11 9
15 15 14 12 13 13 13 12 11 11 10 9 10 9 8 6 7 7 7 6 5 5 4 4 4 3 2 3 2 1 2 1 1 2 2 1 2 3 2 2 3 3 4 3 3 3 3 2 2 4 4 4 3 4 5 5 4 5 4 3 4 5 4 5 5 4 3 3 3 3 3 5 5 5 6 6 8 9 11 9 9 11 11 8 7
13 14 13 11 13 12 14 13 10 11 10 11 11 10 8 7 7 7 7 6 6 5 4 5 4 3 3 1 0 1 0 1 1 2 2 2 2 2 2 3 3 3 3 3 3 4 2 4 4 4 4 4 4 3 3 3 4 4 3 3 4 5 3 4 4 4 4 4 4 4 4 4 5 6 7 4 5 6 6 9 9 10 10 12 9
13 13 13 13 12 13 14 13 11 13 12 12 11 10 8 8 7 8 7 6 6 5 5 5 4 4 2 2 2 1 1 1 2 2 2 3 2 2 2 3 3 3 3 4 3 5 3 3 3 3 3 3 4 3 3 3 3 3 4 4 5 6 5 7 5 5 6 4 5 5 4 3 4 7 5 6 6 7 9 9 9 9 10 9 8
14 11 11 13 13 14 14 13 12 14 12 12 12 12 10 8 9 8 7 7 6 6 6 5 5 4 4 4 2 1 0 2 1 2 2 2 2 2 3 3 3 3 4 3 4 4 4 4 3 3 3 3 3 4 4 4 3 3 3 3 3 5 3 5 5 6 6 6 6 5 3 4 6 5 4 4 6 6 7 9 9 8 10 11 9
14 14 13 12 13 13 13 12 12 12 13 13 12 11 9 9 9 8 8 7 6 6 6 6 5 4 4 3 1 2 2 0 0 1 1 2 1 2 2 3 4 4 4 4 4 5 4 4 4 4 4 3 3 3 5 5 3 3 3 3 4 4 3 3 3 4 5 3 5 7 4 5 5 5 5 4 5 5 6 8 9 7 8 11 9
13 13 14 13 14 13 14 13 13 12 14 14 12 11 10 10 9 9 9 8 7 7 6 6 5 4 4 3 2 3 1 1 1 1 1 2 2 2 2 2 3 3 3 3 3 4 4 3 4 4 4 3 2 2 3 4 3 4 3 4 4 4 3 3 3 4 4 2 4 6 6 4 5 5 5 6 5 6 7 6 7 10 10 9 9
15 14 14 13 13 12 13 14 13 12 13 12 12 11 12 10 10 10 10 9 8 8 7 6 5 5 4 5 4 3 3 2 2 2 3 4 1 2 2 3 3 2 2 3 4 4 3 4 4 4 4 4 3 3 3 3 3 5 4 4 5 3 3 4 4 5 5 4 4 3 3 5 6 5 4 5 6 5 5 6 6 6 11 13 10
14 14 12 14 14 12 14 15 14 13 12 12 12 12 12 11 11 11 10 9 9 8 7 6 6 5 5 5 4 3 3 4 4 3 2 2 2 2 2 3 3 3 3 2 3 3 3 4 4 4 4 3 3 3 2 3 2 3 3 4 5 4 3 3 4 4 4 4 3 4 3 4 5 4 4 4 6 7 7 6 6 7 8 10 10
15 13 11 14 14 14 14 15 15 14 14 11 12 12 11 11 12 12 10 10 10 9 8 7 6 5 5 4 4 3 3 2 2 2 2 2 2 3 3 3 2 3 3 3 3 3 3 4 4 4 4 4 4 4 3 2 3 3 3 3 3 3 4 3 3 3 4 3 3 4 4 4 4 4 2 4 6 5 6 7 8 8 7 10 10
9 13 12 14 14 15 12 14 15 13 11 10 11 12 12 11 11 13 12 11 10 9 8 6 5 5 4 4 4 4 3 2 2 1 0 2 3 3 4 2 3 3 2 2 2 3 3 3 3 4 4 4 3 3 2 2 2 3 3 4 3 3 3 3 3 4 3 3 3 4 4 4 4 5 4 3 5 5 6 6 6 7 8 10 13
14 15 15 14 17 18 18 17 16 14 12 12 15 13 15 14 12 12 11 10 10 9 8 6 6 5 5 3 3 3 3 2 3 2 3 3 2 2 4 5 3 2 2 3 3 4 4 4 5 5 5 4 4 4 3 3 3 3 4 4 3 4 3 4 4 4 3 3 4 4 4 4 4 4 4 5 6 6 7 6 6 7 8 10 10
15 16 15 15 16 17 16 15 13 12 11 13 14 15 15 14 14 14 12 13 12 9 7 6 5 5 4 5 4 4 4 4 5 4 4 4 3 4 3 5 5 3 3 4 4 3 3 4 5 5 5 5 4 4 3 3 3 3 3 3 4 4 4 4 4 4 4 4 3 4 4 4 3 4 4 5 6 7 7 7 8 8 9 8 9
11 13 16 17 14 15 15 12 10 12 14 15 13 14 15 15 14 14 14 13 13 9 7 6 5 5 6 6 5 4 5 4 5 4 4 3 4 5 5 4 5 6 5 4 3 4 3 3 5 5 5 6 5 5 5 3 3 3 3 4 4 4 4 4 4 4 4 3 3 4 4 4 3 3 5 6 6 7 8 9 9 9 9 10 11
12 15 15 15 15 15 14 15 15 14 13 14 14 14 16 15 14 13 13 13 13 12 8 7 6 5 6 5 5 5 4 4 4 4 6 6 7 8 8 8 6 4 3 3 4 4 4 4 4 4 4 5 5 5 4 4 4 4 5 5 5 5 5 4 5 5 4 4 4 4 5 4 3 3 4 4 5 5 7 8 10 9 10 11 11
9 16 14 14 14 13 12 13 14 13 14 15 14 11 11 14 14 13 14 14 12 13 12 9 7 7 6 5 5 4 4 6 7 6 8 7 5 5 4 0 2 2 3 3 4 5 5 5 4 3 3 4 4 4 4 4 4 5 6 6 5 5 7 5 5 5 5 5 5 5 4 4 3 3 3 4 3 4 5 6 9 9 10 12 11
8 12 17 15 13 14 14 14 14 13 15 15 14 18 17 12 13 14 13 14 11 9 13 11 10 9 7 5 6 6 6 6 6 5 6 7 7 5 4 5 5 5 5 5 4 2 2 3 3 2 3 4 4 4 5 4 3 3 5 7 9 8 8 7 6 5 5 5 5 5 4 3 3 3 3 4 3 5 6 7 7 8 9 10 10
7 9 15 16 14 13 12 13 13 13 15 15 14 14 12 11 12 13 12 11 11 7 13 12 11 9 8 8 6 6 7 6 7 5 5 4 4 3 5 7 4 5 5 5 4 4 3 3 3 2 2 4 4 4 5 4 3 2 4 5 6 7 9 11 8 6 6 5 5 6 4 3 3 3 3 4 3 6 6 7 9 9 9 10 11
8 8 12 12 11 15 15 13 13 14 13 13 12 12 11 9 10 9 6 6 5 7 6 12 10 10 7 8 8 7 5 7 5 4 4 4 5 5 5 7 7 7 8 8 7 5 4 4 3 2 3 4 4 4 4 4 1 1 3 5 7 8 7 8 8 7 7 7 6 5 4 3 2 3 3 4 5 6 5 8 9 10 10 10 11
4 5 11 13 15 14 14 15 13 13 12 11 10 10 8 8 10 5 7 8 6 4 4 3 5 3 7 7 6 6 6 4 3 2 2 2 3 2 3 3 4 6 8 8 7 6 6 4 5 5 5 5 5 5 4 2 3 3 4 6 6 6 8 8 7 7 7 8 7 6 7 5 3 2 2 5 5 5 5 7 8 9 9 11 11
11 12 10 13 14 14 16 16 14 14 13 12 11 9 7 8 7 6 7 5 6 10 6 5 4 4 4 5 4 4 4 4 4 4 4 4 3 3 3 4 4 5 6 7 6 7 5 6 6 6 6 6 5 4 1 0 3 4 5 5 5 5 6 7 7 8 7 7 8 7 6 6 2 4 8 8 7 5 4 7 9 7 10 10 12
10 7 6 9 12 14 14 15 14 15 13 13 11 9 10 10 9 9 7 4 8 8 7 6 6 5 5 5 5 4 4 4 4 4 4 4 4 4 5 4 4 5 5 4 4 4 6 6 6 5 5 5 4 2 4 8 7 4 4 4 4 5 6 6 7 7 8 7 7 3 8 15 9 8 10 12 9 9 9 8 9 9 10 11 12
10 8 7 4 6 10 13 14 14 15 15 14 13 10 11 12 9 9 9 7 7 9 7 7 7 7 6 6 6 6 5 5 5 4 4 4 4 4 4 4 5 4 4 5 6 6 4 4 6 7 7 5 4 4 8 10 10 10 6 4 4 5 6 6 6 6 6 6 6 4 5 6 11 10 9 7 7 9 10 12 13 13 12 11 12
11 10 11 11 9 11 14 15 16 15 15 14 12 12 11 8 7 6 4 7 7 9 9 8 7 7 7 8 7 7 7 6 6 6 5 5 5 4 4 4 5 5 5 4 4 4 4 5 5 6 6 5 5 6 8 10 10 11 8 5 4 5 5 6 6 6 6 6 7 8 7 5 4 8 8 8 9 10 10 10 11 11 13 15 16
10 12 13 14 16 16 14 14 15 15 15 14 12 10 9 8 7 7 9 12 9 11 9 8 8 8 8 7 7 7 7 7 6 6 5 5 5 5 5 5 6 6 4 4 4 4 5 4 4 5 5 5 5 7 10 11 11 10 9 7 4 5 5 6 6 6 7 6 7 8 8 6 5 9 7 7 7 7 9 12 12 13 14 15 15
7 10 12 13 13 13 14 16 14 13 14 13 11 12 10 9 8 5 10 10 9 9 9 9 8 8 8 7 7 7 7 7 6 6 6 5 5 6 5 5 5 4 4 5 4 4 3 4 4 5 5 4 5 5 4 9 9 10 10 6 5 6 5 6 6 6 6 7 7 8 8 8 7 7 7 7 7 6 8 9 10 11 11 14 15
8 6 9 10 11 11 13 14 15 15 13 11 10 11 10 8 8 11 12 9 10 10 9 9 9 9 8 8 8 7 7 6 6 6 6 6 6 5 6 6 6 5 4 4 4 3 3 5 7 6 4 4 1 6 1 5 9 10 10 5 4 5 5 6 6 6 6 5 7 7 7 9 9 8 7 8 6 5 6 8 10 11 12 12 12
7 5 8 10 12 11 13 14 13 12 13 13 12 12 11 9 9 13 11 8 10 9 10 9 9 9 9 9 8 8 7 6 6 6 7 7 7 6 6 6 6 6 5 4 4 4 4 5 5 5 2 4 4 3 3 6 8 10 4 3 4 5 5 6 6 5 5 7 7 8 7 7 9 9 8 9 2 3 6 8 9 10 12 12 12
5 7 8 8 9 9 11 10 12 12 13 14 14 14 11 11 13 12 9 9 8 9 9 10 10 10 10 9 9 9 8 8 7 7 8 8 7 7 6 5 6 6 6 6 5 5 4 5 5 4 2 1 3 3 2 6 7 3 3 4 5 5 5 6 6 6 7 6 6 6 7 7 7 6 9 6 5 4 6 7 7 9 10 11 12
7 6 8 8 8 9 9 11 13 13 13 12 14 13 12 11 10 10 11 10 10 10 10 9 10 10 9 9 9 9 9 9 8 9 9 7 7 6 6 5 6 6 7 6 5 4 4 4 5 3 2 2 3 5 3 3 3 4 2 4 4 5 5 5 6 7 6 5 6 12 11 7 6 6 5 7 6 6 5 6 7 8 9 11 13
9 11 11 11 9 9 11 10 11 12 11 11 12 12 12 10 11 12 12 12 11 10 11 11 10 9 8 9 9 10 10 10 10 10 9 8 7 6 6 5 6 6 6 4 3 3 5 5 7 6 4 4 5 2 7 5 3 4 3 4 5 5 5 6 6 6 6 5 6 7 11 8 5 5 7 6 5 3 4 5 6 7 9 12 12
9 10 10 9 9 10 12 12 13 11 11 11 11 10 10 9 10 10 10 10 10 10 9 9 9 9 8 8 9 9 10 10 10 8 8 7 5 6 6 6 6 5 5 3 5 7 8 7 5 5 3 3 2 2 5 4 4 4 4 4 4 4 5 6 6 6 6 7 6 6 6 4 3 4 4 6 7 2 3 5 5 7 9 12 12
12 12 12 10 10 10 12 12 10 10 9 9 8 8 7 8 7 7 7 6 8 9 9 8 8 9 9 9 9 10 11 10 8 7 7 6 7 7 7 6 7 5 3 5 6 5 5 3 3 4 6 3 2 2 2 7 3 2 3 7 4 4 5 5 5 6 7 7 7 5 6 5 1 2 8 10 9 8 4 5 6 6 8 13 15
7 12 12 12 13 11 12 12 9 9 8 6 6 4 3 3 4 5 5 5 3 4 6 8 8 9 10 10 10 8 8 8 8 8 7 7 5 5 4 4 4 3 5 6 5 3 2 2 3 6 6 1 4 4 2 2 4 2 3 8 3 4 3 4 5 6 7 7 6 6 6 7 5 8 11 12 11 9 10 5 7 11 16 17 14
10 13 13 13 12 13 13 13 12 8 6 4 6 4 4 3 3 3 2 2 3 3 4 6 8 9 9 9 8 8 8 7 7 8 8 7 5 5 3 2 2 1 3 5 5 3 2 5 5 5 7 5 2 1 3 2 0 1 6 8 8 6 3 4 5 7 7 8 7 7 7 9 11 11 11 12 10 9 6 6 12 14 16 19 14
10 14 15 13 11 10 11 12 12 9 6 3 3 5 5 4 3 1 2 3 3 4 5 5 6 7 7 8 7 7 7 6 7 7 8 7 6 5 4 2 6 6 4 7 5 4 2 1 2 3 7 4 3 2 3 5 6 10 10 9 9 10 7 6 6 6 7 8 8 7 8 14 16 9 10 12 8 4 5 11 12 12 16 15 10
7 11 11 11 12 9 9 7 5 10 9 7 4 5 5 4 2 1 2 3 3 4 5 5 5 5 5 6 5 1 4 4 7 8 7 6 5 3 4 3 4 5 5 4 1 3 1 3 3 5 5 2 3 3 4 5 6 6 7 3 7 9 10 8 6 7 7 7 9 14 16 15 14 4 9 9 6 0 6 9 9 11 12 8 8
9 7 7 9 10 10 10 13 10 9 8 7 5 4 3 2 1 1 2 3 4 4 5 5 5 5 4 2 3 4 7 9 8 3 5 3 3 5 6 6 2 2 3 3 6 5 5 4 5 3 4 3 4 1 1 3 3 2 4 6 9 10 11 10 7 9 10 11 12 12 15 15 12 3 4 2 3 2 6 8 9 10 5 7 8
7 7 4 7 9 9 10 11 10 7 8 7 7 5 4 3 3 4 5 6 6 5 3 3 4 5 1 1 3 3 8 9 10 8 6 1 1 3 5 2 3 4 3 4 6 6 5 5 5 5 4 2 6 3 1 3 2 2 3 5 6 6 8 8 8 6 8 9 10 11 10 13 13 4 6 5 3 3 4 3 3 5 6 7 8
5 6 1 5 7 8 10 9 6 7 6 6 4 3 2 0 2 4 5 1 2 1 3 4 5 4 3 2 1 4 0 2 2 5 7 9 7 4 4 5 5 4 3 6 8 8 7 7 5 2 5 3 5 5 4 2 3 4 4 5 5 6 6 5 6 7 7 9 9 10 10 6 4 3 4 2 3 3 2 4 4 5 6 7 9
5 8 4 6 8 11 10 10 8 7 6 5 5 3 4 3 2 3 7 4 1 2 2 4 5 4 4 2 2 6 3 3 4 3 4 2 4 4 2 1 5 4 2 7 10 7 7 8 6 5 4 2 3 5 2 2 1 1 3 4 5 5 5 6 5 7 9 8 7 6 6 5 6 5 5 5 4 4 5 5 5 5 6 7 8
3 5 8 9 9 8 7 8 6 5 6 4 3 3 2 2 3 4 5 5 5 4 4 5 5 7 8 6 6 7 7 5 4 3 4 6 8 11 9 5 4 7 9 10 8 3 3 4 6 6 5 4 5 3 3 3 2 3 5 8 9 11 11 9 11 13 7 5 6 6 5 7 6 6 6 5 6 5 6 6 5 6 6 7 8
7 5 5 7 7 7 7 6 5 3 5 5 3 3 3 3 3 2 2 2 2 2 4 6 6 8 3 3 2 3 4 5 5 5 7 8 6 7 12 12 9 8 8 10 9 8 11 12 6 7 8 13 10 7 3 1 3 4 6 7 9 9 11 11 7 6 4 4 4 5 6 6 6 6 6 6 6 6 6 6 7 6 6 7 7
Wind_Direction
167 175 165 169 176 175 169 168 168 175 177 158 170 168 165 170 156 161 163 170 156 169 146 86 71 95 22 297 271 357 355 353 319 256 269 91 258 228 273 277 203 199 240 264 260 251 250 264 276 279 267 251 257 266 277 265 250 241 249 242 252 265 284 282 268 266 276 286 274 263 264 254 258 256 254 246 228 222 218 223 219 210 215 215 214
165 178 163 171 178 169 175 169 172 185 167 169 175 163 167 122 154 144 236 171 151 97 92 158 73 143 202 215 199 190 226 193 229 222 230 207 199 171 207 225 196 179 183 213 247 264 273 265 267 274 285 273 229 234 253 283 284 274 280 272 257 258 269 268 269 278 249 257 284 292 277 270 251 243 236 230 228 218 214 223 228 234 220 205 207
167 171 168 176 172 180 171 180 175 181 174 180 176 156 159 142 194 153 116 0 27 114 184 164 210 203 175 198 203 205 216 229 325 0 344 295 289 274 226 191 194 166 269 254 243 236 236 250 255 255 261 264 257 243 214 275 280 294 323 309 299 272 280 291 268 230 263 254 274 307 281 294 265 243 240 241 231 224 217 226 229 228 235 222 176
171 169 172 184 180 180 167 182 179 176 178 181 174 161 152 170 172 143 161 185 175 145 197 161 186 216 49 64 350 308 352 320 259 239 227 259 327 265 55 30 42 351 1 0 349 335 337 333 338 331 321 321 313 304 301 290 125 339 295 268 272 288 260 251 260 233 236 260 279 234 293 299 297 276 275 244 233 234 228 230 223 222 224 231 193
171 176 174 178 170 175 171 180 179 173 178 176 158 156 187 172 165 165 178 174 136 145 150 133 134 173 131 145 244 195 220 346 5 344 351 10 322 3 38 30 42 7 358 332 330 331 353 348 331 325 317 308 302 300 289 302 303 243 253 268 268 257 273 283 270 267 248 171 226 303 283 259 255 296 349 295 288 263 240 239 234 228 231 220 205
173 176 176 175 173 168 175 172 182 169 161 166 159 173 175 162 154 160 145 144 142 144 119 106 101 81 132 111 337 80 45 356 12 4 347 7 341 354 353 14 357 13 336 339 350 353 340 336 325 313 308 302 304 311 337 188 203 226 233 234 255 257 288 311 292 276 243 188 202 222 236 274 296 327 353 299 17 317 311 299 283 261 230 222 214
177 182 179 181 170 171 165 171 179 175 161 164 168 165 160 151 152 149 138 119 119 111 115 107 111 48 93 36 39 80 299 178 95 20 352 317 345 325 351 10 346 347 354 338 322 307 306 328 327 315 314 316 332 336 314 297 298 307 303 250 190 201 177 267 267 281 245 213 225 227 246 259 272 288 273 301 293 286 260 294 279 258 242 236 228
180 186 180 180 170 174 168 168 172 169 153 153 158 153 148 154 150 130 123 120 122 130 128 138 121 137 95 149 107 25 318 8 24 262 195 122 13 337 348 299 347 333 307 309 297 300 318 323 321 321 315 317 266 312 317 298 277 279 239 242 239 172 238 256 281 295 306 310 269 275 277 262 261 258 254 257 273 290 287 281 275 284 282 251 229
182 188 182 182 167 169 157 162 170 163 154 153 151 151 148 145 138 133 125 130 136 146 143 132 127 125 136 103 87 351 0 353 349 360 21 341 274 281 301 346 338 315 305 283 274 293 326 315 315 300 296 320 345 281 254 271 284 280 279 246 242 218 208 239 253 261 277 288 302 274 301 306 289 287 289 276 265 276 277 284 287 283 278 275 266
180 189 184 185 166 172 158 160 173 161 148 149 147 150 146 142 144 145 141 145 149 151 153 147 141 122 158 172 195 154 150 304 348 302 270 354 312 304 344 337 343 335 288 311 330 320 284 279 304 323 337 326 338 321 325 333 311 286 297 348 277 240 219 225 235 235 206 245 262 262 259 271 272 268 253 255 260 257 273 282 290 296 288 278 281
176 188 182 179 167 165 160 162 173 142 149 151 154 153 150 151 151 155 154 152 154 150 163 153 151 168 184 163 173 216 284 312 333 303 331 333 323 331 329 0 325 291 333 301 318 300 335 11 343 335 334 330 315 317 284 274 302 312 326 276 264 266 256 264 270 264 259 235 240 240 251 259 285 289 284 304 309 291 283 279 279 273 274 282 273
179 185 178 176 160 164 162 166 160 144 152 158 158 153 154 155 159 162 161 157 157 158 169 160 177 172 201 172 178 179 302 356 304 321 339 326 331 342 342 299 291 316 303 296 283 340 7 352 340 326 328 321 309 314 314 311 311 334 336 356 317 314 349 325 303 288 266 262 247 230 227 248 241 249 249 255 264 272 263 263 276 292 290 273 289
185 180 176 171 166 168 166 161 153 152 160 164 159 161 158 161 167 168 170 159 171 167 171 183 179 177 181 179 162 41 54 223 305 309 289 317 14 329 316 311 321 318 298 316 350 332 8 332 325 323 299 303 307 308 314 314 357 334 335 310 317 310 283 264 309 305 347 319 337 313 270 265 263 258 255 262 261 260 277 293 276 278 280 286 282
186 182 182 172 166 174 158 160 153 158 164 164 159 159 157 166 169 177 173 167 176 171 186 184 182 192 171 157 260 105 191 75 260 253 330 15 321 291 306 318 323 314 328 345 345 334 319 318 312 316 307 303 316 347 326 333 318 300 302 287 287 267 263 299 286 298 280 306 8 296 272 266 259 260 250 249 256 268 275 267 283 281 271 276 277
174 177 181 170 168 169 160 160 158 164 168 168 164 157 157 166 170 180 173 177 176 184 186 188 185 187 157 180 174 155 150 150 117 146 274 253 261 274 278 296 293 290 305 306 308 301 294 305 310 297 302 298 314 313 269 264 307 310 303 316 311 294 325 325 308 289 283 262 204 236 255 249 262 260 250 238 241 248 254 266 285 291 284 273 276
176 178 180 170 169 165 161 159 163 167 170 171 165 157 163 167 173 182 179 176 180 186 187 192 188 166 176 179 178 183 150 135 186 193 219 224 270 345 319 274 264 317 318 297 280 277 302 303 304 299 305 317 303 302 301 297 315 336 321 316 307 326 324 310 309 303 303 313 306 306 283 276 275 268 254 265 255 251 246 257 250 268 290 294 286
170 178 181 166 169 168 163 164 168 172 175 176 168 162 167 166 172 182 180 174 185 185 190 191 183 175 174 177 185 202 181 191 214 223 276 345 279 274 290 303 294 251 247 265 288 303 300 291 290 302 295 291 295 275 285 295 292 235 261 270 279 297 274 287 280 286 307 325 309 302 289 281 277 278 294 342 321 293 281 263 247 251 258 265 282
166 171 172 169 174 168 159 168 173 175 177 173 168 165 168 170 173 177 177 180 183 185 192 184 183 179 173 183 189 189 201 230 239 250 234 224 253 238 251 261 306 344 302 270 276 284 283 291 284 285 287 273 261 263 257 276 274 277 263 269 292 289 289 281 293 302 288 308 313 308 313 307 310 304 244 204 244 258 260 259 268 263 251 256 266
176 175 174 176 172 174 162 170 178 176 171 170 169 168 172 174 176 177 180 182 181 185 189 180 177 176 179 183 189 183 197 222 229 250 17 277 274 260 260 300 312 287 299 302 306 301 285 284 287 277 274 283 287 294 287 276 289 284 284 277 269 283 279 285 285 285 300 309 314 311 312 309 320 324 323 257 243 244 253 256 259 256 253 251 257
187 190 187 179 174 175 173 174 180 177 170 170 175 179 182 180 175 174 178 178 178 185 179 178 174 181 169 169 178 184 204 210 208 206 228 243 264 294 270 255 264 290 289 294 280 274 288 297 298 297 294 293 294 294 294 283 287 269 285 294 290 287 292 290 298 298 299 305 308 311 317 313 324 327 331 332 322 310 307 290 258 252 255 246 252
184 176 183 177 173 179 173 170 170 179 174 175 181 185 186 182 177 179 176 178 181 184 176 174 175 172 184 174 179 188 199 203 206 212 225 227 224 250 257 252 235 228 242 255 266 279 292 286 289 297 297 299 293 284 277 279 271 267 260 269 285 287 290 294 287 297 301 301 304 313 315 318 331 333 339 333 325 327 324 318 316 308 296 280 257
186 147 173 185 182 176 173 168 165 177 184 184 183 187 192 185 179 183 180 181 182 178 175 172 175 176 182 189 197 194 202 199 212 219 225 224 241 235 237 242 233 220 212 234 244 258 262 280 289 291 296 297 298 292 289 289 284 284 290 284 281 288 294 295 299 294 302 304 311 305 307 313 334 331 342 334 336 334 333 326 324 319 315 309 305
181 154 183 182 179 180 175 170 178 183 184 182 183 195 198 188 182 184 180 183 185 177 175 166 173 184 183 185 191 193 200 214 221 227 232 236 234 227 221 226 231 246 222 217 227 236 241 244 254 268 283 292 293 301 311 310 311 293 289 291 286 296 292 289 295 302 303 308 297 298 305 316 333 333 335 332 331 334 335 328 320 317 307 304 301
200 160 176 180 183 169 171 177 184 190 178 182 185 196 220 195 185 181 183 182 191 174 173 169 173 180 183 181 181 204 218 223 219 210 228 239 253 265 251 87 354 289 255 246 250 246 234 231 235 250 275 286 295 295 299 283 274 301 311 309 300 296 291 288 290 298 303 296 291 289 300 315 329 320 321 313 323 339 335 320 309 310 308 304 303
189 162 163 173 169 172 179 182 190 197 179 183 182 189 203 185 185 181 185 181 192 172 162 166 175 181 182 178 195 202 208 217 239 252 252 252 259 289 355 328 278 269 268 262 252 272 287 256 229 238 275 286 282 287 278 279 294 326 335 332 323 313 307 304 298 293 292 282 278 283 294 299 304 299 303 303 314 329 331 316 305 305 305 303 303
195 162 157 173 174 176 181 184 192 196 180 178 185 187 187 179 186 182 181 178 172 172 151 166 177 185 172 179 192 205 215 219 223 235 258 302 320 323 272 266 309 329 334 314 304 299 280 292 284 248 270 273 274 268 264 258 279 11 357 320 306 317 312 300 297 291 285 277 278 280 281 282 275 292 291 291 305 313 316 308 306 299 298 299 300
197 172 168 165 165 180 187 190 195 192 180 178 180 180 182 170 172 174 126 102 122 154 153 160 182 184 176 175 185 193 207 221 212 208 223 240 251 280 304 322 318 315 325 318 301 288 293 291 298 316 295 294 280 271 265 258 260 73 306 295 287 289 283 274 279 289 288 285 281 281 281 262 257 266 284 295 297 298 300 303 297 297 294 299 302
224 207 172 176 179 177 181 190 192 177 173 175 176 176 167 153 161 148 122 136 133 79 85 142 171 154 148 167 186 184 191 203 219 235 259 246 267 289 290 291 295 284 280 289 305 314 315 333 339 324 308 290 280 280 277 222 190 199 213 220 242 256 263 276 285 285 283 284 287 284 280 277 263 275 287 286 279 282 285 285 289 290 292 297 300
191 217 203 185 183 186 184 183 179 170 170 171 171 168 145 147 145 124 144 131 118 129 178 177 164 159 157 165 175 184 185 184 193 204 206 226 231 244 252 256 258 272 270 284 302 309 321 313 299 285 277 273 281 291 150 142 276 222 212 234 253 272 287 291 292 293 292 291 288 289 284 289 290 273 266 258 250 245 258 275 284 285 290 297 298
191 196 201 218 191 176 172 171 172 171 168 170 167 163 154 151 152 149 137 183 143 154 166 175 176 176 169 175 177 188 187 187 198 205 213 214 224 227 240 251 274 281 284 267 282 305 293 283 283 290 293 294 295 279 212 235 227 243 263 274 284 285 286 285 283 287 289 289 293 360 310 309 285 266 270 268 254 245 236 239 264 281 291 293 294
194 175 198 234 234 181 167 170 172 170 171 172 169 161 155 162 150 139 151 190 159 153 168 178 181 176 176 181 182 190 192 193 200 211 213 223 224 236 247 248 248 252 269 279 259 255 277 298 298 296 294 293 292 286 197 214 229 237 241 253 268 280 284 284 285 287 294 301 304 270 247 270 297 288 279 267 262 269 266 255 249 252 258 273 294
179 182 175 173 204 209 178 177 176 173 171 172 166 162 155 135 128 129 145 226 180 161 173 181 183 179 180 187 188 190 193 195 201 205 213 214 223 232 242 251 252 251 254 259 267 266 273 274 272 270 279 284 281 277 224 217 227 234 232 241 264 280 286 287 288 291 293 297 297 298 294 285 279 291 288 294 291 291 289 280 272 265 268 267 260
175 179 181 192 194 204 183 179 178 177 178 173 158 142 126 118 115 176 194 214 178 171 175 180 186 185 189 190 189 194 193 199 200 206 206 213 219 223 234 249 252 251 249 254 275 261 250 266 279 281 277 275 271 258 214 217 222 229 234 230 255 269 275 282 288 293 297 293 296 295 294 287 287 279 281 285 289 295 298 302 300 300 292 283 280
249 190 188 191 196 193 179 182 181 180 180 170 152 135 137 153 161 191 219 204 176 171 177 183 188 190 191 192 193 194 201 200 204 204 208 213 218 223 231 249 258 257 250 250 255 269 274 268 267 265 269 272 272 344 251 225 224 228 233 218 252 263 272 281 282 287 298 301 301 303 297 294 295 298 288 284 290 301 311 313 317 314 307 303 300
251 211 183 180 191 176 167 179 182 182 172 163 138 139 142 159 167 209 217 187 173 175 177 184 189 192 191 192 193 197 202 205 205 211 211 217 221 222 226 232 248 254 257 256 255 269 276 267 261 257 262 268 269 63 11 240 241 239 236 218 255 264 273 276 276 278 280 276 287 285 292 292 292 288 278 278 296 314 315 313 311 308 305 302 301
234 194 171 171 183 187 183 180 185 175 171 166 157 157 162 177 192 210 198 175 171 178 180 183 191 193 194 192 194 194 203 204 210 213 218 224 226 223 224 224 230 243 250 253 252 250 258 265 263 266 301 334 328 353 293 268 255 257 255 240 250 254 262 270 274 277 274 274 267 268 277 283 283 282 284 279 348 344 314 317 311 302 304 303 302
198 185 165 159 170 180 189 165 166 170 174 169 165 173 175 181 194 195 177 179 175 183 187 189 195 195 194 194 193 199 198 203 210 216 220 224 226 219 219 216 234 239 242 236 239 241 238 250 262 261 101 216 276 250 341 295 276 231 189 246 253 264 272 276 278 273 275 264 252 233 224 252 267 283 277 300 28 8 325 311 303 296 299 301 305
171 151 151 150 162 176 171 165 164 174 179 173 170 177 182 176 179 181 180 185 189 193 196 194 200 199 195 192 194 197 200 202 206 215 220 225 226 221 224 213 223 232 240 250 265 268 265 269 266 262 187 233 277 120 93 48 341 177 219 272 283 281 279 281 281 278 275 278 295 299 291 284 280 275 307 16 25 360 313 306 300 298 297 303 310
161 163 161 167 166 173 164 161 161 173 174 170 175 175 178 172 177 187 190 189 194 194 196 202 199 200 197 195 197 197 205 206 209 212 217 225 223 220 224 223 224 227 235 242 262 274 283 270 267 285 165 202 269 129 82 59 91 150 193 249 261 275 282 281 282 285 291 298 297 299 296 296 304 329 18 14 4 325 287 284 292 291 300 308 312
148 159 156 161 156 152 157 168 168 174 172 173 173 173 179 179 180 193 199 194 192 198 202 201 200 199 200 202 203 203 204 211 212 209 210 215 213 224 234 233 224 232 236 240 247 241 242 255 269 275 277 271 330 348 98 92 138 190 220 278 273 271 286 293 295 298 305 299 296 297 303 34 56 73 22 343 323 300 266 276 278 293 305 309 313
164 153 155 155 158 154 162 165 167 172 173 170 170 170 172 169 183 193 211 210 190 195 196 196 200 200 204 210 209 209 205 206 215 215 208 208 211 221 221 229 243 250 221 219 236 260 273 291 312 311 299 338 63 265 197 147 155 170 249 250 292 294 294 299 307 304 293 295 294 303 314 306 137 6 356 346 330 317 294 278 278 294 303 298 304
165 142 153 157 162 156 168 164 156 162 155 163 146 159 169 155 183 201 209 221 230 195 190 197 199 203 205 211 216 214 207 206 208 210 213 216 219 225 222 230 234 239 264 271 268 266 259 278 327 0 345 290 222 183 265 236 154 129 245 253 288 308 350 323 299 291 290 290 299 300 298 295 304 348 353 332 324 321 319 310 293 303 306 309 311
166 156 162 162 159 164 169 153 142 159 157 145 138 153 155 183 215 224 251 266 269 255 217 203 209 207 208 215 219 211 200 205 211 212 216 218 207 212 214 250 257 328 320 302 291 295 324 25 22 318 280 233 220 177 166 243 129 239 253 251 246 259 268 260 273 284 292 293 288 286 283 300 322 342 345 318 315 318 316 316 318 326 329 318 311
180 168 165 166 149 164 152 141 149 155 123 136 176 154 164 186 203 212 290 289 282 272 261 245 228 217 212 215 223 216 201 204 215 220 222 215 204 192 193 174 55 22 341 305 344 346 62 145 233 254 275 273 136 124 138 154 178 210 229 244 256 254 254 262 275 277 280 281 283 286 308 315 307 359 322 296 288 290 329 329 335 347 336 318 319
240 187 165 151 154 153 142 121 123 142 150 158 159 149 151 173 163 235 296 288 287 277 270 260 257 238 221 225 231 335 331 262 241 239 227 206 202 192 90 63 135 180 218 219 259 246 240 245 248 242 258 288 144 148 150 176 190 202 236 268 322 308 285 257 253 259 254 265 300 311 304 301 301 330 239 259 258 330 353 322 324 355 350 330 331
222 215 160 142 152 147 123 108 102 93 93 102 112 112 140 144 148 184 243 247 249 259 266 268 267 258 252 19 339 275 250 243 244 273 267 224 141 112 136 209 178 196 162 180 229 227 230 228 233 249 233 208 127 183 174 174 180 311 322 325 314 304 299 295 277 262 272 292 297 299 298 295 299 196 223 259 314 15 314 302 346 357 348 343 348
293 243 178 147 143 132 127 121 118 131 136 136 136 142 143 142 173 208 216 217 231 232 263 290 278 270 107 297 259 300 302 333 344 326 285 39 301 126 124 169 244 247 232 241 243 234 233 234 233 238 270 149 143 223 233 79 24 351 332 339 332 325 327 351 336 344 355 335 317 309 297 292 287 276 202 236 249 277 275 332 352 3 5 3 356
308 289 115 120 134 143 125 121 118 109 84 81 92 90 132 103 324 294 297 269 3 337 269 272 276 286 296 239 204 290 44 236 350 323 351 342 308 258 172 193 201 188 209 236 240 230 222 226 208 190 259 219 188 158 66 11 7 354 341 331 326 320 330 338 328 336 332 316 307 297 294 286 297 90 157 215 215 219 298 356 358 10 15 360 355
21 311 335 58 69 78 95 103 95 85 83 81 73 57 29 8 306 336 15 334 243 295 264 265 271 252 234 185 360 323 343 91 204 190 187 77 351 340 0 17 37 358 275 227 233 220 221 226 216 190 185 216 90 85 63 36 6 24 276 315 317 311 315 304 313 346 323 307 295 297 295 347 10 33 29 16 9 24 4 351 1 9 13 6 2
276 82 53 64 66 67 71 84 85 100 111 109 109 86 58 357 11 22 38 31 17 346 304 278 274 277 273 251 180 185 168 170 186 196 139 90 70 58 34 20 79 35 33 10 23 33 5 347 78 52 28 70 88 90 140 183 222 250 251 246 260 275 278 275 287 306 287 276 284 299 350 23 359 34 21 15 6 10 4 357 358 6 10 10 3
191 136 102 98 103 113 125 108 108 135 115 126 119 132 138 97 75 79 36 34 341 304 287 286 278 279 308 56 143 198 179 186 189 192 179 165 158 70 58 61 60 58 47 50 55 49 37 31 58 106 75 90 108 118 112 65 337 311 290 279 272 271 273 273 281 315 283 263 305 10 26 21 8 16 24 12 3 7 6 3 357 356 4 6 1